EW7041 Weather Reports


time (UTC)temp
C
wind
direction
speed
KPH
gust
KPH
rain 1hr
cm
rain 24hr
cm
rain mn
cm
humidity
%
barometer
mb
20260503174528 14 142 3.2 11.3 0.00 0.00 0.00 73 1011.9
20260503173042 15 202 1.6 8.0 0.00 0.00 0.00 73 1011.9
20260503171526 16 263 1.6 8.0 0.00 0.00 0.00 70 1011.7
20260503150104 13 181 0.0 1.6 0.00 0.00 0.00 75 1011.2
20260503081519 12 234 0.0 6.4 0.00 0.00 0.00 80 1010.6
20260503071519 12 292 1.6 11.3 0.00 0.00 0.00 79 1010.7
20260503054513 13 287 1.6 9.7 0.00 0.00 0.00 79 1011.2
20260503053010 13 273 3.2 8.0 0.00 0.00 0.00 78 1011.2
20260503051507 13 293 3.2 11.3 0.00 0.00 0.00 78 1011.3
20260503050006 13 262 1.6 9.7 0.00 0.00 0.00 78 1011.1
20260503044505 13 271 4.8 8.0 0.00 0.00 0.00 79 1011.0
20260503043003 13 302 3.2 8.0 0.00 0.00 0.00 79 1011.0
20260503041504 13 298 0.0 11.3 0.00 0.00 0.00 79 1010.8
20260503040025 13 325 3.2 16.1 0.00 0.00 0.00 79 1010.6
20260503034524 13 284 4.8 14.5 0.00 0.00 0.00 79 1010.6
20260503033022 13 297 3.2 14.5 0.00 0.00 0.00 78 1010.5
20260503031521 13 280 3.2 12.9 0.00 0.00 0.00 78 1010.4
20260503030020 13 311 1.6 12.9 0.00 0.00 0.00 77 1010.2
20260503024521 13 273 4.8 16.1 0.00 0.00 0.00 77 1010.1
20260503023019 13 254 4.8 14.5 0.00 0.00 0.00 76 1010.0
20260503021520 13 279 4.8 16.1 0.00 0.00 0.00 75 1010.0
20260503020031 13 319 4.8 14.5 0.00 0.00 0.00 75 1010.0
20260503014516 14 238 4.8 17.7 0.00 0.00 0.00 75 1010.0
20260503013016 14 286 9.7 17.7 0.00 0.00 0.00 73 1010.1
20260503011515 15 282 3.2 12.9 0.00 0.00 0.00 73 1010.1
20260503010014 15 284 3.2 17.7 0.00 0.00 0.00 72 1010.0
20260503004512 15 304 6.4 17.7 0.00 0.00 0.00 70 1010.1
20260503003021 16 280 8.0 19.3 0.00 0.00 0.00 69 1010.1
20260503001511 15 314 6.4 17.7 0.00 0.00 0.00 70 1010.2
20260503000016 16 314 4.8 19.3 0.00 0.00 0.00 69 1010.1
20260502234509 16 263 3.2 16.1 0.00 0.00 0.00 70 1010.3
20260502233006 16 272 8.0 22.5 0.00 0.00 0.00 67 1010.4
20260502231536 17 254 4.8 22.5 0.00 0.00 0.00 68 1010.5
20260502230033 17 320 4.8 14.5 0.00 0.00 0.00 65 1010.8
20260502224533 17 286 4.8 22.5 0.00 0.00 0.00 67 1011.0
20260502223039 16 318 4.8 16.1 0.00 0.00 0.00 67 1011.1
20260502221530 17 286 6.4 14.5 0.00 0.00 0.00 64 1011.3
20260502220028 17 279 4.8 16.1 0.00 0.00 0.00 67 1011.6
20260502214527 17 284 3.2 16.1 0.00 0.00 0.00 66 1011.7
20260502213026 16 294 4.8 12.9 0.00 0.00 0.00 69 1011.7
20260502211532 17 303 3.2 16.1 0.00 0.00 0.00 68 1011.8
20260502210023 17 277 6.4 14.5 0.00 0.00 0.00 67 1012.1
20260502204534 17 277 6.4 14.5 0.00 0.00 0.00 68 1012.3
20260502203021 17 279 3.2 12.9 0.00 0.00 0.00 69 1012.4
20260502201516 17 309 1.6 11.3 0.00 0.00 0.00 71 1012.6
20260502200015 15 289 4.8 14.5 0.00 0.00 0.00 74 1012.7
20260502194515 15 270 1.6 11.3 0.00 0.00 0.00 75 1012.8
20260502193008 15 240 1.6 8.0 0.00 0.00 0.00 75 1012.9
20260502191507 15 268 3.2 12.9 0.00 0.00 0.00 76 1013.0
20260502190005 15 274 3.2 12.9 0.00 0.00 0.00 77 1013.0
20260502184504 15 274 0.0 6.4 0.00 0.00 0.00 77 1012.9
20260502183003 15 209 1.6 6.4 0.00 0.00 0.00 77 1012.9
20260502181604 15 197 1.6 4.8 0.00 0.00 0.00 79 1012.9